Location: Hastringsfeld
(50.9620°N, 10.4787°E)
Time: 12:03:38
(UTC+00:00)

Cosmos 1743 - Pass Details

Date: 26 September 2023
Orbit: 486 x 502 km, 82.5° (Epoch: 28 November)

Event Time Altitude Azimuth Distance (km) Brightness Sun altitude
Rises 03:49:03 0° 348° (NNW) 2,628 6.3 -13.4°
Reaches altitude 10° 03:51:12 10° 347° (NNW) 1,735 5.4 -13.1°
Maximum altitude 03:55:00 77° 262° (W) 525 2.5 -12.5°
Drops below altitude 10° 03:58:44 10° 176° (S) 1,707 5.2 -11.9°
Sets 04:00:50 0° 175° (S) 2,582 6.2 -11.6°
